Flag for Canada Weather past 2 weeks in Timmins, Ontario, Canada

Now
55 °F

Sunny.


Feels Like: 54 °F
Forecast: 29 / 53 °F
Wind: 6 mph from South

Location: Timmins

Current Time: Oct 23, 2014 at 4:22:34 PM

Latest Report: Oct 23, 2014 at 4:00 PM


Visibility: 15 mi

Pressure: 30.10 "Hg

Humidity: 31%

Dew point: 25 °F

Location of TimminsLocation

Historic Weather in Timmins — Graph

°F

Timmins temperature yesterday

Maximum temperature yesterday: 50 °F (at 3:00 PM)
Minimum temperature yesterday: 21 °F (at 5:00 AM)
Average temperature yesterday: 33 °F

Past Weeks' High & Low Weather Summary

 TemperatureHumidityPressure
High57 °F (Oct 12, 2:00 PM)100% (Oct 9, 12:00 AM)30.48 "Hg (Oct 9, 12:00 AM)
Low21 °F (Oct 22, 5:00 AM)31% (Oct 23, 3:00 PM)29.28 "Hg (Oct 17, 1:00 PM)
Average39 °F88%29.95 "Hg
* Reported Oct 8 3:00 PM — Oct 23 3:00 PM, Timmins, Weather by CustomWeather, © 2014

Note: Actual official high and low records may vary slightly from our data, if they occured in-between our weather recording intervals... More about our weather records

Advertising

Timmins weather history for previous 24 hours

 ConditionsComfort  
Time TempWeatherWind HumidityBarometerVisibility
3:00 PM
Oct 23
55 °FSunny.12 mph31%30.12 "Hg15 mi
2:00 PM52 °FSunny.5 mph41%30.14 "Hg15 mi
1:00 PM50 °FSunny.7 mph47%30.18 "Hg15 mi
12:00 PM46 °FSunny.9 mph57%30.20 "Hg15 mi
11:00 AMN/ASunny.5 mphN/AN/A15 mi
10:00 AM36 °FSunny.5 mph87%30.24 "Hg15 mi
9:00 AM28 °FSunny.5 mph93%30.25 "Hg15 mi
8:00 AM27 °FClear.5 mph93%30.25 "Hg15 mi
7:00 AM27 °FClear.3 mph100%30.25 "Hg15 mi
6:00 AM28 °FClear.3 mph93%30.25 "Hg15 mi
5:00 AM27 °FClear.3 mph100%30.26 "Hg15 mi
4:00 AM28 °FClear.5 mph93%30.27 "Hg15 mi
3:00 AM27 °FClear.3 mph93%30.28 "Hg15 mi
2:00 AM28 °FClear.3 mph93%30.30 "Hg15 mi
1:00 AM32 °FClear.3 mph87%30.31 "Hg15 mi
12:00 AM30 °FClear.5 mph86%30.32 "Hg15 mi
11:00 PM
Oct 22
32 °FClear.3 mph87%30.33 "Hg15 mi
10:00 PM30 °FClear.2 mph86%30.34 "Hg15 mi
9:00 PM32 °FClear.2 mph87%30.34 "Hg15 mi
8:00 PM32 °FClear.No wind87%30.35 "Hg15 mi
7:00 PM36 °FPassing clouds.No wind81%30.34 "Hg15 mi
6:00 PM45 °FSunny.3 mph57%30.35 "Hg15 mi
5:00 PM48 °FPassing clouds.6 mph46%30.36 "Hg15 mi
4:00 PM50 °FPassing clouds.9 mph43%30.38 "Hg15 mi
Weather by CustomWeather, © 2014

See weather overviewHow to use our weather pages